GW4777 Weather Reports


time (UTC)temp
C
wind
direction
speed
KPH
gust
KPH
rain 1hr
cm
rain 24hr
cm
rain mn
cm
humidity
%
barometer
mb
20260507060546 11 98 0.0 0.0 0.00 0.00 0.00 66 1019.8
20260507060042 11 110 0.0 0.0 0.00 0.00 0.00 65 1019.8
20260507055537 11 102 0.0 0.0 0.00 0.00 0.00 65 1019.6
20260507055033 11 92 0.0 0.0 0.00 0.00 0.00 64 1019.9
20260507054529 12 85 0.0 0.0 0.00 0.00 0.00 64 1019.4
20260507054026 12 103 0.0 0.0 0.00 0.00 0.00 63 1019.5
20260507053524 12 91 0.0 0.0 0.00 0.00 0.00 63 1019.5
20260507053023 12 83 0.0 0.0 0.00 0.00 0.00 63 1019.3
20260507052520 12 91 0.0 0.0 0.00 0.00 0.00 63 1019.3
20260507052017 12 120 0.0 0.0 0.00 0.00 0.00 62 1019.3
20260507051515 12 118 0.0 0.0 0.00 0.00 0.00 62 1019.3
20260507051011 12 96 0.0 0.0 0.00 0.00 0.00 61 1019.2
20260507050508 12 93 0.0 0.0 0.00 0.00 0.00 61 1019.1
20260507050005 12 84 0.0 0.0 0.00 0.00 0.00 61 1019.1
20260507045501 12 80 0.0 0.0 0.00 0.00 0.00 61 1019.2
20260507044958 12 93 0.0 0.0 0.00 0.00 0.00 60 1019.1
20260507044455 13 96 0.0 0.0 0.00 0.00 0.00 60 1019.2
20260507043951 13 91 0.0 0.0 0.00 0.00 0.00 60 1019.1
20260507043447 13 108 0.0 0.0 0.00 0.00 0.00 60 1018.9
20260507042944 13 96 0.0 0.0 0.00 0.00 0.00 59 1018.9
20260507042441 13 99 0.0 0.0 0.00 0.00 0.00 59 1018.9
20260507041936 13 89 0.0 0.0 0.00 0.00 0.00 59 1018.8
20260507041433 13 96 0.0 0.0 0.00 0.00 0.00 59 1018.8
20260507040931 13 102 0.0 0.0 0.00 0.00 0.00 58 1018.7
20260507040432 13 84 0.0 1.6 0.00 0.00 0.00 58 1018.8
20260507035928 13 106 0.0 0.0 0.00 0.00 0.00 58 1018.5
20260507035424 13 103 0.0 0.0 0.00 0.00 0.00 58 1018.3
20260507034921 13 113 0.0 0.0 0.00 0.00 0.00 58 1018.3
20260507034418 13 79 0.0 0.0 0.00 0.00 0.00 57 1018.2
20260507033916 13 90 0.0 0.0 0.00 0.00 0.00 57 1018.1
20260507033414 14 91 0.0 0.0 0.00 0.00 0.00 57 1018.1
20260507032910 14 92 0.0 0.0 0.00 0.00 0.00 57 1017.6
20260507032407 14 99 0.0 0.0 0.00 0.00 0.00 56 1017.6
20260507031903 14 102 0.0 0.0 0.00 0.00 0.00 56 1017.5
20260507031400 14 95 0.0 0.0 0.00 0.00 0.00 56 1017.3
20260507030857 15 62 0.0 0.0 0.00 0.00 0.00 55 1017.5
20260507030354 15 71 0.0 0.0 0.00 0.00 0.00 55 1017.1
20260507025851 15 83 0.0 0.0 0.00 0.00 0.00 54 1017.1
20260507025349 15 92 0.0 0.0 0.00 0.00 0.00 54 1017.2
20260507024846 15 89 0.0 0.0 0.00 0.00 0.00 53 1016.9
20260507024343 15 109 0.0 0.0 0.00 0.00 0.00 53 1016.9
20260507023839 15 103 0.0 0.0 0.00 0.00 0.00 53 1016.9
20260507023336 15 109 0.0 0.0 0.00 0.00 0.00 53 1016.6
20260507022833 15 73 0.0 1.6 0.00 0.00 0.00 52 1016.6
20260507022330 16 117 0.0 0.0 0.00 0.00 0.00 52 1016.6
20260507021825 16 58 0.0 0.0 0.00 0.00 0.00 52 1016.6
20260507021321 16 79 0.0 0.0 0.00 0.00 0.00 51 1016.5
20260507020819 16 99 0.0 0.0 0.00 0.00 0.00 51 1016.3
20260507020315 16 126 0.0 0.0 0.00 0.00 0.00 50 1016.3
20260507015813 16 87 0.0 0.0 0.00 0.00 0.00 50 1016.3
20260507015311 16 82 0.0 0.0 0.00 0.00 0.00 50 1016.1
20260507014807 16 111 0.0 1.6 0.00 0.00 0.00 49 1016.1
20260507014303 17 71 0.0 0.0 0.00 0.00 0.00 49 1016.1
20260507013800 17 92 1.6 1.6 0.00 0.00 0.00 49 1015.8
20260507013257 17 106 0.0 1.6 0.00 0.00 0.00 48 1015.8
20260507012755 17 85 0.0 0.0 0.00 0.00 0.00 48 1015.9
20260507012250 17 94 0.0 0.0 0.00 0.00 0.00 48 1015.7
20260507011748 17 80 0.0 0.0 0.00 0.00 0.00 47 1015.8
20260507011244 17 70 0.0 1.6 0.00 0.00 0.00 47 1015.6
20260507010744 18 89 0.0 0.0 0.00 0.00 0.00 46 1015.4
20260507010240 18 95 0.0 0.0 0.00 0.00 0.00 46 1015.3
20260507005738 18 106 0.0 0.0 0.00 0.00 0.00 46 1015.4
20260507005234 18 81 0.0 0.0 0.00 0.00 0.00 45 1015.1
20260507004730 18 79 0.0 1.6 0.00 0.00 0.00 45 1015.3
20260507004228 18 84 0.0 0.0 0.00 0.00 0.00 44 1015.0
20260507003724 18 76 0.0 0.0 0.00 0.00 0.00 44 1015.0
20260507003220 18 87 0.0 0.0 0.00 0.00 0.00 43 1015.0
20260507002716 18 60 0.0 0.0 0.00 0.00 0.00 43 1014.9
20260507002212 18 64 3.2 4.8 0.00 0.00 0.00 43 1014.9
20260507001709 19 74 0.0 0.0 0.00 0.00 0.00 43 1014.9
20260507001206 19 63 0.0 0.0 0.00 0.00 0.00 42 1014.9
20260507000702 19 82 0.0 0.0 0.00 0.00 0.00 42 1014.8
20260507000158 19 94 0.0 0.0 0.00 0.00 0.00 42 1014.8
20260506235655 19 73 0.0 0.0 0.00 0.00 0.00 42 1014.9
20260506235150 19 63 0.0 0.0 0.00 0.00 0.00 43 1014.9
20260506234648 19 64 0.0 1.6 0.00 0.00 0.00 42 1014.7
20260506234145 19 89 0.0 0.0 0.00 0.00 0.00 43 1014.7
20260506233642 20 85 0.0 0.0 0.00 0.00 0.00 42 1014.8
20260506233139 20 78 0.0 1.6 0.00 0.00 0.00 43 1014.8
20260506232635 19 70 0.0 0.0 0.00 0.00 0.00 42 1014.9
20260506232131 20 97 1.6 1.6 0.00 0.00 0.00 42 1014.8
20260506231628 20 97 3.2 4.8 0.00 0.00 0.00 42 1014.8
20260506231126 20 85 1.6 1.6 0.00 0.00 0.00 42 1014.8
20260506230623 20 73 1.6 1.6 0.00 0.00 0.00 42 1014.8
20260506230120 20 75 0.0 0.0 0.00 0.00 0.00 41 1014.7
20260506225616 20 66 3.2 3.2 0.00 0.00 0.00 41 1014.8
20260506225113 21 123 1.6 3.2 0.00 0.00 0.00 41 1014.7
20260506224610 21 89 3.2 3.2 0.00 0.00 0.00 39 1014.6
20260506224106 20 60 0.0 1.6 0.00 0.00 0.00 41 1014.5
20260506223602 20 139 1.6 1.6 0.00 0.00 0.00 41 1014.5
20260506223059 20 81 1.6 1.6 0.00 0.00 0.00 41 1014.3
20260506222556 21 68 0.0 1.6 0.00 0.00 0.00 40 1014.4
20260506222052 20 71 0.0 1.6 0.00 0.00 0.00 41 1014.4
20260506221550 20 69 0.0 1.6 0.00 0.00 0.00 40 1014.5
20260506221048 21 55 0.0 0.0 0.00 0.00 0.00 40 1014.4
20260506220543 21 68 0.0 1.6 0.00 0.00 0.00 40 1014.3
20260506220039 20 137 1.6 3.2 0.00 0.00 0.00 41 1014.5
20260506215536 21 67 0.0 0.0 0.00 0.00 0.00 40 1014.4
20260506215031 21 73 1.6 1.6 0.00 0.00 0.00 41 1014.4
20260506214529 20 54 0.0 1.6 0.00 0.00 0.00 41 1014.6
20260506214026 20 69 0.0 1.6 0.00 0.00 0.00 41 1014.5
20260506213524 21 62 0.0 1.6 0.00 0.00 0.00 40 1014.6
20260506213021 21 94 0.0 0.0 0.00 0.00 0.00 40 1014.4
20260506212518 21 61 0.0 1.6 0.00 0.00 0.00 41 1014.5
20260506212013 21 93 4.8 4.8 0.00 0.00 0.00 40 1014.5
20260506211509 21 71 0.0 1.6 0.00 0.00 0.00 41 1014.7
20260506211006 21 69 0.0 1.6 0.00 0.00 0.00 41 1014.7
20260506210502 20 96 0.0 0.0 0.00 0.00 0.00 41 1014.9
20260506205959 20 74 0.0 0.0 0.00 0.00 0.00 41 1014.8
20260506205455 20 123 0.0 0.0 0.00 0.00 0.00 43 1015.0
20260506204951 20 55 1.6 3.2 0.00 0.00 0.00 42 1015.1
20260506204450 21 73 0.0 0.0 0.00 0.00 0.00 41 1015.0
20260506203947 20 43 1.6 1.6 0.00 0.00 0.00 42 1015.4
20260506203444 20 73 0.0 1.6 0.00 0.00 0.00 41 1015.4
20260506202940 20 89 1.6 1.6 0.00 0.00 0.00 42 1015.4
20260506202438 20 55 1.6 1.6 0.00 0.00 0.00 41 1015.4
20260506201934 19 104 0.0 0.0 0.00 0.00 0.00 43 1015.4
20260506201432 20 77 1.6 1.6 0.00 0.00 0.00 42 1015.6
20260506200928 21 68 0.0 1.6 0.00 0.00 0.00 41 1015.6
20260506200425 20 60 1.6 3.2 0.00 0.00 0.00 41 1015.8
20260506195921 19 113 1.6 1.6 0.00 0.00 0.00 42 1015.7
20260506195418 20 100 1.6 1.6 0.00 0.00 0.00 43 1015.7
20260506194915 20 51 0.0 1.6 0.00 0.00 0.00 43 1015.8
20260506194412 20 110 1.6 1.6 0.00 0.00 0.00 42 1015.8
20260506193909 20 76 3.2 3.2 0.00 0.00 0.00 42 1015.7
20260506193406 18 74 0.0 1.6 0.00 0.00 0.00 44 1015.8
20260506192902 18 51 0.0 1.6 0.00 0.00 0.00 44 1015.9
20260506192359 18 60 0.0 1.6 0.00 0.00 0.00 45 1015.8
20260506191856 18 81 1.6 1.6 0.00 0.00 0.00 45 1015.7
20260506191352 18 62 0.0 1.6 0.00 0.00 0.00 45 1015.7
20260506190849 18 74 1.6 3.2 0.00 0.00 0.00 46 1015.9
20260506190345 18 71 0.0 1.6 0.00 0.00 0.00 45 1015.9
20260506185843 18 87 1.6 1.6 0.00 0.00 0.00 46 1015.9
20260506185340 17 105 1.6 1.6 0.00 0.00 0.00 46 1016.0
20260506184836 17 60 0.0 0.0 0.00 0.00 0.00 47 1016.2
20260506184334 18 91 0.0 0.0 0.00 0.00 0.00 46 1016.3
20260506183831 17 57 1.6 1.6 0.00 0.00 0.00 46 1016.3
20260506183326 17 98 0.0 1.6 0.00 0.00 0.00 48 1016.3
20260506182824 17 76 0.0 0.0 0.00 0.00 0.00 47 1016.4
20260506182321 17 75 0.0 1.6 0.00 0.00 0.00 48 1016.5
20260506181819 16 95 1.6 1.6 0.00 0.00 0.00 49 1016.4
20260506181316 16 68 0.0 1.6 0.00 0.00 0.00 48 1016.5
20260506180813 16 66 0.0 1.6 0.00 0.00 0.00 48 1016.4
20260506180309 16 84 1.6 1.6 0.00 0.00 0.00 48 1016.5
20260506175806 16 46 1.6 1.6 0.00 0.00 0.00 50 1016.5
20260506175306 16 67 0.0 0.0 0.00 0.00 0.00 50 1016.6
20260506174800 16 66 1.6 3.2 0.00 0.00 0.00 51 1016.5
20260506174257 16 96 1.6 1.6 0.00 0.00 0.00 51 1016.7
20260506173755 15 71 0.0 0.0 0.00 0.00 0.00 52 1016.6
20260506173251 15 61 0.0 0.0 0.00 0.00 0.00 53 1016.6
20260506172748 15 51 1.6 1.6 0.00 0.00 0.00 53 1016.8
20260506172245 15 73 1.6 3.2 0.00 0.00 0.00 53 1016.9
20260506171742 15 99 0.0 0.0 0.00 0.00 0.00 54 1016.9
20260506171239 14 54 1.6 3.2 0.00 0.00 0.00 54 1016.9
20260506170737 14 67 0.0 0.0 0.00 0.00 0.00 54 1016.9
20260506170233 14 87 0.0 1.6 0.00 0.00 0.00 53 1017.1
20260506165732 13 62 1.6 1.6 0.00 0.00 0.00 55 1017.0
20260506165229 14 65 0.0 1.6 0.00 0.00 0.00 54 1017.0
20260506164726 13 77 0.0 1.6 0.00 0.00 0.00 55 1017.1
20260506164222 13 55 0.0 1.6 0.00 0.00 0.00 56 1017.3
20260506163719 14 91 0.0 0.0 0.00 0.00 0.00 55 1017.4
20260506163214 13 70 1.6 3.2 0.00 0.00 0.00 56 1017.6
20260506162710 13 96 0.0 1.6 0.00 0.00 0.00 56 1017.5
20260506162208 13 78 0.0 0.0 0.00 0.00 0.00 57 1017.6
20260506161705 13 98 0.0 0.0 0.00 0.00 0.00 58 1017.5
20260506161202 12 74 0.0 0.0 0.00 0.00 0.00 59 1017.6
20260506160700 12 110 1.6 1.6 0.00 0.00 0.00 58 1017.7
20260506160156 12 54 0.0 1.6 0.00 0.00 0.00 58 1017.5
20260506155655 12 84 0.0 0.0 0.00 0.00 0.00 59 1017.7
20260506155151 12 67 0.0 1.6 0.00 0.00 0.00 60 1017.6
20260506153253 11 75 0.0 1.6 0.00 0.00 0.00 61 1017.7
20260506152750 11 139 1.6 1.6 0.00 0.00 0.00 60 1017.9
20260506152248 11 98 0.0 1.6 0.00 0.00 0.00 61 1017.8
20260506151747 11 64 0.0 0.0 0.00 0.00 0.00 60 1017.8
20260506151243 12 79 0.0 1.6 0.00 0.00 0.00 60 1018.1
20260506150739 12 68 0.0 1.6 0.00 0.00 0.00 60 1017.7
20260506150237 11 85 0.0 0.0 0.00 0.00 0.00 60 1017.7
20260506145734 11 64 0.0 1.6 0.00 0.00 0.00 61 1017.5
20260506145230 11 82 0.0 1.6 0.00 0.00 0.00 61 1017.6
20260506144727 11 56 0.0 1.6 0.00 0.00 0.00 61 1017.4
20260506144224 11 108 0.0 1.6 0.00 0.00 0.00 61 1017.2
20260506143722 11 61 0.0 0.0 0.00 0.00 0.00 60 1017.0
20260506143219 11 83 0.0 1.6 0.00 0.00 0.00 60 1016.7
20260506142718 12 63 1.6 3.2 0.00 0.00 0.00 58 1016.8
20260506142215 11 72 0.0 0.0 0.00 0.00 0.00 59 1016.5
20260506141713 11 72 1.6 1.6 0.00 0.00 0.00 60 1016.8
20260506141211 11 106 0.0 0.0 0.00 0.00 0.00 60 1016.6
20260506140709 11 79 0.0 0.0 0.00 0.00 0.00 61 1016.6
20260506140205 11 91 0.0 0.0 0.00 0.00 0.00 61 1016.6
20260506135702 11 77 0.0 0.0 0.00 0.00 0.00 61 1016.8
20260506135158 11 60 0.0 1.6 0.00 0.00 0.00 61 1016.7
20260506134655 10 82 0.0 1.6 0.00 0.00 0.00 61 1016.6
20260506134151 10 73 0.0 0.0 0.00 0.00 0.00 62 1016.7
20260506133648 10 80 0.0 1.6 0.00 0.00 0.00 61 1016.5
20260506133145 10 95 0.0 1.6 0.00 0.00 0.00 62 1016.2
20260506132643 10 74 0.0 0.0 0.00 0.00 0.00 63 1016.2
20260506132139 10 76 0.0 1.6 0.00 0.00 0.00 62 1016.2
20260506131637 10 70 0.0 0.0 0.00 0.00 0.00 62 1016.1
20260506131133 10 78 0.0 1.6 0.00 0.00 0.00 62 1016.0
20260506130630 10 70 1.6 1.6 0.00 0.00 0.00 62 1016.1
20260506130127 10 57 0.0 0.0 0.00 0.00 0.00 62 1015.9
20260506125626 10 66 0.0 0.0 0.00 0.00 0.00 62 1015.9
20260506125123 10 80 0.0 1.6 0.00 0.00 0.00 62 1015.9
20260506124621 10 74 0.0 1.6 0.00 0.00 0.00 61 1015.8
20260506124118 10 97 0.0 1.6 0.00 0.00 0.00 61 1015.6
20260506123616 10 69 0.0 0.0 0.00 0.00 0.00 60 1015.6
20260506123114 10 61 0.0 1.6 0.00 0.00 0.00 60 1015.5
20260506122610 10 75 0.0 1.6 0.00 0.00 0.00 60 1015.4
20260506122109 10 80 0.0 0.0 0.00 0.00 0.00 60 1015.5
20260506121606 10 79 0.0 0.0 0.00 0.00 0.00 60 1015.6
20260506121102 10 53 0.0 1.6 0.00 0.00 0.00 60 1015.5
20260506120600 10 66 0.0 0.0 0.00 0.00 0.00 60 1015.4
20260506120057 10 69 0.0 0.0 0.00 0.00 0.00 61 1015.4
20260506115555 10 96 0.0 0.0 0.00 0.00 0.00 61 1015.3
20260506115053 10 122 0.0 0.0 0.00 0.00 0.00 62 1015.0
20260506114550 10 70 0.0 0.0 0.00 0.00 0.00 61 1015.4
20260506114048 10 69 0.0 0.0 0.00 0.00 0.00 61 1015.3
20260506113546 10 94 0.0 1.6 0.00 0.00 0.00 61 1015.4
20260506113043 10 86 0.0 0.0 0.00 0.00 0.00 62 1015.4
20260506112540 10 66 0.0 1.6 0.00 0.00 0.00 62 1014.8
20260506112037 10 78 0.0 0.0 0.00 0.00 0.00 62 1015.3
20260506111535 10 64 0.0 1.6 0.00 0.00 0.00 62 1015.1
20260506111032 10 75 0.0 0.0 0.00 0.00 0.00 62 1014.7
20260506110530 10 69 0.0 0.0 0.00 0.00 0.00 63 1015.0
20260506110027 10 74 0.0 0.0 0.00 0.00 0.00 64 1014.8
20260506105522 10 75 0.0 0.0 0.00 0.00 0.00 64 1014.8
20260506105020 10 97 0.0 0.0 0.00 0.00 0.00 64 1014.8
20260506104518 10 66 0.0 0.0 0.00 0.00 0.00 65 1014.7
20260506104016 10 82 0.0 0.0 0.00 0.00 0.00 66 1014.7
20260506103512 10 75 0.0 0.0 0.00 0.00 0.00 67 1014.7
20260506103009 10 66 0.0 0.0 0.00 0.00 0.00 67 1014.7
20260506102508 9 61 0.0 1.6 0.00 0.00 0.00 68 1014.6
20260506102005 9 61 0.0 0.0 0.00 0.00 0.00 69 1014.8
20260506101501 9 90 0.0 0.0 0.00 0.00 0.00 70 1014.5
20260506100958 9 69 0.0 0.0 0.00 0.00 0.00 70 1014.8
20260506100457 9 70 1.6 3.2 0.00 0.00 0.00 70 1014.7
20260506095954 9 68 0.0 0.0 0.00 0.00 0.00 71 1014.6
20260506095453 9 73 0.0 0.0 0.00 0.00 0.00 71 1014.5
20260506094948 9 70 0.0 0.0 0.00 0.00 0.00 72 1014.6
20260506094447 9 83 0.0 0.0 0.00 0.00 0.00 73 1014.5
20260506093944 9 63 0.0 1.6 0.00 0.00 0.00 73 1014.6
20260506093442 9 63 0.0 1.6 0.00 0.00 0.00 74 1014.3
20260506092940 9 56 0.0 0.0 0.00 0.00 0.00 74 1014.0
20260506092438 9 85 0.0 1.6 0.00 0.00 0.00 75 1014.2
20260506091934 9 64 0.0 1.6 0.00 0.00 0.00 75 1014.3
20260506091432 9 88 0.0 0.0 0.00 0.00 0.00 75 1014.3
20260506090929 9 89 0.0 0.0 0.00 0.00 0.00 75 1014.1
20260506090427 9 77 0.0 0.0 0.00 0.00 0.00 76 1013.9
20260506085923 9 78 0.0 0.0 0.00 0.00 0.00 76 1014.0
20260506085420 9 48 0.0 0.0 0.00 0.00 0.00 75 1014.0
20260506084916 10 70 0.0 1.6 0.00 0.00 0.00 75 1014.2
20260506084413 10 134 0.0 1.6 0.00 0.00 0.00 74 1014.0
20260506083909 10 60 0.0 1.6 0.00 0.00 0.00 75 1013.8
20260506083407 10 73 0.0 0.0 0.00 0.00 0.00 76 1013.7
20260506082904 10 71 0.0 1.6 0.00 0.00 0.00 77 1013.7
20260506082401 10 96 0.0 0.0 0.00 0.00 0.00 76 1013.8
20260506081856 9 69 0.0 0.0 0.00 0.00 0.00 77 1013.7
20260506081355 10 65 0.0 0.0 0.00 0.00 0.00 77 1013.6
20260506080852 10 75 0.0 0.0 0.00 0.00 0.00 77 1013.5
20260506080349 10 92 0.0 1.6 0.00 0.00 0.00 76 1013.6
20260506073333 10 76 0.0 0.0 0.00 0.00 0.00 75 1013.1
20260506072829 10 104 0.0 0.0 0.00 0.00 0.00 75 1013.1
20260506072327 10 77 0.0 1.6 0.00 0.00 0.00 75 1012.9
20260506071825 10 74 0.0 0.0 0.00 0.00 0.00 75 1012.6
20260506071323 10 80 0.0 0.0 0.00 0.00 0.00 75 1012.8
20260506070820 10 79 0.0 0.0 0.00 0.00 0.00 75 1013.1
20260506070316 10 80 0.0 0.0 0.00 0.00 0.00 75 1013.4
20260506062253 10 71 0.0 0.0 0.00 0.00 0.00 74 1012.7
20260506061749 10 71 0.0 0.0 0.00 0.00 0.00 74 1012.5
20260506061246 10 104 0.0 0.0 0.00 0.00 0.00 74 1012.6